Location: Ocean City
(38.3360°N, 75.0850°W)
Time: 01:37:08
(UTC-05:00)

S-56A Canister/Altair - All Passes

Search period start: 12 November 2019 00:00
Search period end: 22 November 2019 00:00
Orbit: 634 x 2498 km, 38.9° (Epoch: 10 November)

Date Brightness Start Highest point End Pass type
(mag) Time Alt. Az. Time Alt. Az. Time Alt. Az.
12 Nov - 00:51:18 10° W 00:55:07 28° SSW 00:59:23 10° SSE night (unlit)
12 Nov - 16:03:48 10° SSE 16:07:25 13° SE 16:10:34 10° ESE daylight
12 Nov - 18:04:09 10° SW 18:11:40 39° SSE 18:16:57 10° E visible
12 Nov - 20:09:06 10° WSW 20:15:33 84° S 20:20:19 10° E visible
12 Nov - 22:14:16 10° W 22:19:19 89° S 22:23:44 10° E night (unlit)
13 Nov - 00:18:38 10° W 00:22:37 32° SSW 00:26:51 10° SE night (unlit)
13 Nov - 15:31:39 10° SSE 15:34:32 12° SE 15:37:09 10° SE daylight
13 Nov - 17:30:59 10° SW 17:38:55 36° SSE 17:44:29 10° E visible
13 Nov - 19:35:53 10° WSW 19:42:56 80° SSE 19:47:55 10° E visible
13 Nov - 21:41:22 10° W 21:46:46 88° N 21:51:14 10° E visible
13 Nov - 23:45:57 10° W 23:50:08 37° SSW 23:54:22 10° SE night (unlit)
14 Nov - 15:00:13 10° SSE 15:01:37 10° SE 15:02:57 10° SE daylight
14 Nov - 16:57:47 10° SSW 17:06:07 34° SSE 17:11:59 10° E daylight
14 Nov - 19:02:36 10° WSW 19:10:17 75° SSE 19:15:32 10° E visible
14 Nov - 21:08:22 10° W 21:14:12 85° N 21:18:46 10° E visible
14 Nov - 23:13:11 10° W 23:17:40 43° SSW 23:21:54 10° SE night (unlit)
15 Nov - 16:24:34 10° SSW 16:33:16 32° SSE 16:39:26 10° E daylight
15 Nov - 18:29:14 10° WSW 18:37:34 71° SSE 18:43:08 10° E visible
15 Nov - 20:35:15 10° W 20:41:37 84° N 20:46:19 10° E visible
15 Nov - 22:40:23 10° W 22:45:11 51° SSW 22:49:28 10° SE night (unlit)
16 Nov - 00:47:01 10° SW 00:48:07 11° SW 00:49:13 10° SSW night (unlit)
16 Nov - 15:51:22 10° SSW 16:00:21 30° SSE 16:06:50 10° E daylight
16 Nov - 17:55:48 10° WSW 18:04:49 67° SSE 18:10:45 10° E visible
16 Nov - 20:02:02 10° W 20:08:59 84° N 20:13:55 10° E visible
16 Nov - 22:07:29 10° W 22:12:42 59° SSW 22:17:04 10° ESE night (unlit)
17 Nov - 00:13:26 10° WSW 00:15:36 13° SW 00:17:47 10° S night (unlit)
17 Nov - 15:18:12 10° SSW 15:27:23 28° SSE 15:34:09 10° E daylight
17 Nov - 17:22:19 10° WSW 17:32:00 63° SSE 17:38:20 10° E visible
17 Nov - 19:28:42 10° W 19:36:19 85° N 19:41:32 10° E visible
17 Nov - 21:34:29 10° W 21:40:11 67° SSW 21:44:40 10° ESE visible
17 Nov - 23:40:12 10° WSW 23:43:07 16° SW 23:45:56 10° S night (unlit)
18 Nov - 14:45:05 10° SSW 14:54:23 26° SE 15:01:23 10° E daylight
18 Nov - 16:48:48 10° SW 16:59:08 59° SSE 17:05:54 10° E daylight
18 Nov - 18:55:16 10° W 19:03:35 87° N 19:09:08 10° E visible
18 Nov - 21:01:25 10° W 21:07:38 75° SSW 21:12:17 10° ESE visible
18 Nov - 23:07:04 10° W 23:10:39 20° SW 23:13:57 10° SSE night (unlit)
19 Nov - 14:12:02 10° S 14:21:18 24° SE 14:28:30 10° E daylight
19 Nov - 16:15:15 10° SW 16:26:12 56° SSE 16:33:25 10° E daylight
19 Nov - 18:21:44 10° W 18:30:50 89° N 18:36:45 10° E visible
19 Nov - 20:28:13 10° W 20:35:02 81° SSW 20:39:55 10° ESE visible
19 Nov - 22:33:58 10° W 22:38:12 25° SW 22:41:54 10° SSE night (unlit)
20 Nov - 13:39:05 10° S 13:48:12 22° SE 13:55:30 10° E daylight
20 Nov - 15:41:43 10° SW 15:53:12 53° SSE 16:00:54 10° E daylight
20 Nov - 17:48:08 10° WSW 17:57:59 88° S 18:04:20 10° E visible
20 Nov - 19:54:55 10° W 20:02:23 86° SSW 20:07:32 10° ESE visible
20 Nov - 22:00:49 10° W 22:05:44 31° SSW 22:09:47 10° SSE night (unlit)
21 Nov - 13:06:18 10° S 13:15:04 20° SE 13:22:19 10° E daylight
21 Nov - 15:08:11 10° SW 15:20:08 50° SSE 15:28:18 10° E daylight
21 Nov - 17:14:27 10° WSW 17:25:06 85° SSE 17:31:55 10° E visible
21 Nov - 19:21:31 10° W 19:29:42 90° S 19:35:10 10° E visible
21 Nov - 21:27:39 10° W 21:33:15 38° SSW 21:37:37 10° SE visible
